When you browse on this site, cookies collect data to enhance your experience and personalize the content and advertising you see.
Visit our Privacy Policy to learn more. By continuing to use the site, you agree to this use of cookies and data.
  • In Österreich
  • Länderverzeichnis
  • Für 7 Tage
  • Wassertemperatur
  • Wetterkarte
  • News
  • Widgets
  • user-avatar
    Anmelden

    Stündliche Wetter Tarija

    Heute, 24 Oktober, Donnerstag

    Zeit Temperatur Niederschläge Wind Luftdruck Luftfeuchtigkeit
    00:00 +16°C° 0 mm 1 m/S 598 mmHg 63%
    01:00 +16°C° 0 mm 1 m/S 597 mmHg 64%
    02:00 +15°C° 0 mm 1 m/S 597 mmHg 66%
    03:00 +15°C° 0 mm 1 m/S 597 mmHg 67%
    04:00 +15°C° 0 mm 1 m/S 597 mmHg 69%
    05:00 +14°C° 0 mm 1 m/S 597 mmHg 70%
    06:00 +16°C° 0 mm 2 m/S 597 mmHg 65%
    07:00 +17°C° 0 mm 2 m/S 598 mmHg 60%
    08:00 +18°C° 0 mm 2 m/S 599 mmHg 55%
    09:00 +20°C° 0 mm 2 m/S 599 mmHg 50%
    10:00 +23°C° 0 mm 2 m/S 599 mmHg 44%
    11:00 +24°C° 0 mm 3 m/S 599 mmHg 38%
    12:00 +25°C° 0 mm 3 m/S 599 mmHg 37%
    13:00 +26°C° 0 mm 3 m/S 598 mmHg 35%
    14:00 +27°C° 0 mm 4 m/S 597 mmHg 34%
    15:00 +26°C° 0 mm 4 m/S 597 mmHg 37%
    16:00 +26°C° 0 mm 4 m/S 597 mmHg 41%
    17:00 +25°C° 0 mm 5 m/S 596 mmHg 44%
    18:00 +23°C° 0 mm 4 m/S 596 mmHg 50%
    19:00 +22°C° 0 mm 3 m/S 597 mmHg 57%
    20:00 +20°C° 0 mm 2 m/S 597 mmHg 63%
    21:00 +20°C° 0 mm 2 m/S 597 mmHg 67%
    22:00 +20°C° 0 mm 1 m/S 598 mmHg 70%
    23:00 +20°C° 0 mm 1 m/S 598 mmHg 73%

    Morgen, 25 Oktober, Freitag

    Zeit Temperatur Niederschläge Wind Luftdruck Luftfeuchtigkeit
    00:00 +20°C° 0 mm 1 m/S 597 mmHg 74%
    01:00 +17°C° 0 mm 0 m/S 597 mmHg 75%
    02:00 +17°C° 0 mm 0 m/S 597 mmHg 76%
    03:00 +17°C° 0 mm 0 m/S 597 mmHg 78%
    04:00 +16°C° 0 mm 0 m/S 597 mmHg 79%
    05:00 +16°C° 0 mm 0 m/S 597 mmHg 81%
    06:00 +17°C° 0 mm 0 m/S 598 mmHg 76%
    07:00 +20°C° 0 mm 1 m/S 599 mmHg 71%
    08:00 +21°C° 0 mm 1 m/S 599 mmHg 66%
    09:00 +22°C° 0 mm 1 m/S 600 mmHg 61%
    10:00 +24°C° 0 mm 2 m/S 600 mmHg 56%
    11:00 +25°C° 0 mm 3 m/S 600 mmHg 51%
    12:00 +25°C° 0.2 mm 3 m/S 599 mmHg 53%
    13:00 +25°C° 0.2 mm 4 m/S 599 mmHg 54%
    14:00 +25°C° 0.2 mm 4 m/S 598 mmHg 55%
    15:00 +23°C° 0.3 mm 4 m/S 597 mmHg 59%
    16:00 +24°C° 0.3 mm 3 m/S 597 mmHg 63%
    17:00 +22°C° 0.3 mm 3 m/S 596 mmHg 66%
    18:00 +21°C° 0.2 mm 3 m/S 597 mmHg 71%
    19:00 +20°C° 0.2 mm 2 m/S 597 mmHg 75%
    20:00 +20°C° 0.2 mm 1 m/S 597 mmHg 79%
    21:00 +20°C° 0.1 mm 1 m/S 598 mmHg 80%
    22:00 +20°C° 0.1 mm 1 m/S 598 mmHg 81%
    23:00 +18°C° 0.1 mm 0 m/S 598 mmHg 82%

    übermorgen, 26 Oktober, Samstag

    Zeit Temperatur Niederschläge Wind Luftdruck Luftfeuchtigkeit
    00:00 +19°C° 0 mm 1 m/S 598 mmHg 83%
    01:00 +19°C° 0 mm 1 m/S 597 mmHg 84%
    02:00 +19°C° 0 mm 1 m/S 597 mmHg 85%
    03:00 +19°C° 0 mm 1 m/S 597 mmHg 85%
    04:00 +18°C° 0 mm 1 m/S 596 mmHg 85%
    05:00 +17°C° 0 mm 2 m/S 596 mmHg 85%
    06:00 +19°C° 0 mm 2 m/S 597 mmHg 76%
    07:00 +20°C° 0 mm 2 m/S 597 mmHg 67%
    08:00 +23°C° 0 mm 2 m/S 598 mmHg 58%
    09:00 +25°C° 0 mm 2 m/S 598 mmHg 49%
    10:00 +27°C° 0 mm 2 m/S 599 mmHg 40%
    11:00 +29°C° 0 mm 2 m/S 599 mmHg 31%
    12:00 +30°C° 0 mm 2 m/S 598 mmHg 27%
    13:00 +33°C° 0 mm 3 m/S 598 mmHg 23%
    14:00 +34°C° 0 mm 3 m/S 597 mmHg 20%
    15:00 +33°C° 0 mm 4 m/S 596 mmHg 24%
    16:00 +32°C° 0 mm 5 m/S 596 mmHg 29%
    17:00 +32°C° 0 mm 7 m/S 595 mmHg 33%
    18:00 +29°C° 0.5 mm 5 m/S 595 mmHg 42%
    19:00 +27°C° 0.5 mm 4 m/S 595 mmHg 51%
    20:00 +24°C° 0.5 mm 2 m/S 595 mmHg 60%
    21:00 +24°C° 0 mm 2 m/S 595 mmHg 61%
    22:00 +24°C° 0 mm 2 m/S 595 mmHg 61%
    23:00 +24°C° 0 mm 1 m/S 596 mmHg 61%

    27 Oktober, Sonntag

    Zeit Temperatur Niederschläge Wind Luftdruck Luftfeuchtigkeit
    00:00 +23°C° 0 mm 1 m/S 595 mmHg 60%
    01:00 +23°C° 0 mm 1 m/S 595 mmHg 59%
    02:00 +23°C° 0 mm 1 m/S 595 mmHg 57%
    03:00 +22°C° 0 mm 1 m/S 594 mmHg 57%
    04:00 +22°C° 0 mm 1 m/S 594 mmHg 57%
    05:00 +21°C° 0 mm 1 m/S 594 mmHg 57%
    06:00 +24°C° 0 mm 1 m/S 596 mmHg 48%
    07:00 +26°C° 0 mm 1 m/S 597 mmHg 39%
    08:00 +28°C° 0 mm 1 m/S 598 mmHg 30%
    09:00 +30°C° 0 mm 1 m/S 598 mmHg 24%
    10:00 +31°C° 0 mm 1 m/S 599 mmHg 18%
    11:00 +33°C° 0 mm 1 m/S 599 mmHg 12%
    12:00 +35°C° 0 mm 2 m/S 598 mmHg 11%
    13:00 +35°C° 0 mm 3 m/S 598 mmHg 10%
    14:00 +36°C° 0 mm 3 m/S 597 mmHg 10%
    15:00 +35°C° 0 mm 5 m/S 597 mmHg 15%
    16:00 +34°C° 0 mm 7 m/S 596 mmHg 20%
    17:00 +33°C° 0 mm 8 m/S 595 mmHg 25%
    18:00 +29°C° 0.8 mm 6 m/S 595 mmHg 36%
    19:00 +27°C° 0.8 mm 4 m/S 595 mmHg 47%
    20:00 +24°C° 0.8 mm 2 m/S 595 mmHg 57%
    21:00 +24°C° 0.5 mm 2 m/S 595 mmHg 60%
    22:00 +23°C° 0.5 mm 1 m/S 595 mmHg 62%
    23:00 +22°C° 0.5 mm 1 m/S 595 mmHg 64%

    28 Oktober, Montag

    Zeit Temperatur Niederschläge Wind Luftdruck Luftfeuchtigkeit
    00:00 +22°C° 0 mm 1 m/S 595 mmHg 62%
    01:00 +22°C° 0 mm 1 m/S 594 mmHg 59%
    02:00 +22°C° 0 mm 1 m/S 594 mmHg 57%
    03:00 +22°C° 0 mm 1 m/S 594 mmHg 55%
    04:00 +22°C° 0 mm 1 m/S 594 mmHg 53%
    05:00 +22°C° 0 mm 1 m/S 594 mmHg 52%
    06:00 +24°C° 0 mm 1 m/S 595 mmHg 45%
    07:00 +26°C° 0 mm 1 m/S 596 mmHg 39%
    08:00 +28°C° 0 mm 1 m/S 597 mmHg 33%
    09:00 +29°C° 0 mm 1 m/S 598 mmHg 28%
    10:00 +31°C° 0 mm 2 m/S 598 mmHg 23%
    11:00 +34°C° 0 mm 2 m/S 598 mmHg 19%
    12:00 +35°C° 0 mm 3 m/S 598 mmHg 17%
    13:00 +36°C° 0 mm 4 m/S 597 mmHg 16%
    14:00 +36°C° 0 mm 4 m/S 597 mmHg 15%
    15:00 +35°C° 0.1 mm 5 m/S 596 mmHg 20%
    16:00 +33°C° 0.1 mm 6 m/S 595 mmHg 25%
    17:00 +30°C° 0.1 mm 6 m/S 594 mmHg 30%
    18:00 +28°C° 0.5 mm 5 m/S 594 mmHg 37%
    19:00 +26°C° 0.5 mm 4 m/S 594 mmHg 44%
    20:00 +24°C° 0.5 mm 2 m/S 594 mmHg 52%
    21:00 +24°C° 0 mm 2 m/S 595 mmHg 51%
    22:00 +24°C° 0 mm 1 m/S 595 mmHg 50%
    23:00 +24°C° 0 mm 1 m/S 595 mmHg 49%

    29 Oktober, Dienstag

    Zeit Temperatur Niederschläge Wind Luftdruck Luftfeuchtigkeit
    00:00 +24°C° 0 mm 1 m/S 595 mmHg 49%
    01:00 +23°C° 0 mm 1 m/S 594 mmHg 48%
    02:00 +23°C° 0 mm 1 m/S 594 mmHg 48%
    03:00 +22°C° 0 mm 1 m/S 594 mmHg 48%
    04:00 +22°C° 0 mm 1 m/S 594 mmHg 48%
    05:00 +22°C° 0 mm 1 m/S 594 mmHg 48%
    06:00 +23°C° 0 mm 1 m/S 595 mmHg 42%
    07:00 +25°C° 0 mm 1 m/S 596 mmHg 37%
    08:00 +27°C° 0 mm 1 m/S 598 mmHg 31%
    09:00 +29°C° 0 mm 1 m/S 598 mmHg 29%
    10:00 +30°C° 0 mm 2 m/S 598 mmHg 27%
    11:00 +32°C° 0 mm 2 m/S 599 mmHg 24%
    12:00 +33°C° 0 mm 4 m/S 598 mmHg 26%
    13:00 +33°C° 0 mm 5 m/S 598 mmHg 27%
    14:00 +34°C° 0 mm 6 m/S 597 mmHg 28%
    15:00 +32°C° 0.4 mm 6 m/S 596 mmHg 38%
    16:00 +29°C° 0.4 mm 5 m/S 595 mmHg 48%
    17:00 +27°C° 0.4 mm 5 m/S 594 mmHg 58%
    18:00 +26°C° 0.7 mm 4 m/S 595 mmHg 62%
    19:00 +25°C° 0.7 mm 3 m/S 595 mmHg 67%
    20:00 +24°C° 0.7 mm 2 m/S 596 mmHg 71%
    21:00 +24°C° 0.5 mm 2 m/S 596 mmHg 72%
    22:00 +23°C° 0.5 mm 1 m/S 597 mmHg 74%
    23:00 +23°C° 0.5 mm 1 m/S 597 mmHg 75%

    30 Oktober, Mittwoch

    Zeit Temperatur Niederschläge Wind Luftdruck Luftfeuchtigkeit
    00:00 +23°C° 0.8 mm 1 m/S 597 mmHg 75%
    01:00 +23°C° 0.8 mm 1 m/S 597 mmHg 74%
    02:00 +23°C° 0.8 mm 1 m/S 596 mmHg 74%
    03:00 +22°C° 0 mm 1 m/S 596 mmHg 75%
    04:00 +22°C° 0 mm 1 m/S 596 mmHg 77%
    05:00 +20°C° 0 mm 2 m/S 596 mmHg 78%
    06:00 +21°C° 0 mm 2 m/S 597 mmHg 72%
    07:00 +23°C° 0 mm 2 m/S 598 mmHg 67%
    08:00 +24°C° 0 mm 2 m/S 598 mmHg 61%
    09:00 +25°C° 0 mm 2 m/S 599 mmHg 57%
    10:00 +26°C° 0 mm 3 m/S 599 mmHg 54%
    11:00 +28°C° 0 mm 3 m/S 599 mmHg 50%
    12:00 +27°C° 0.3 mm 3 m/S 598 mmHg 54%
    13:00 +27°C° 0.3 mm 4 m/S 598 mmHg 58%
    14:00 +27°C° 0.3 mm 4 m/S 597 mmHg 61%
    15:00 +25°C° 1 mm 4 m/S 597 mmHg 68%
    16:00 +22°C° 1 mm 3 m/S 596 mmHg 75%
    17:00 +21°C° 1 mm 3 m/S 596 mmHg 82%
    18:00 +20°C° 1.2 mm 3 m/S 597 mmHg 84%
    19:00 +20°C° 1.2 mm 2 m/S 598 mmHg 86%
    20:00 +19°C° 1.2 mm 2 m/S 599 mmHg 87%
    Mehr zeigen